OK1CMJ-5 Weather Reports


time (UTC)temp
C
wind
direction
speed
KPH
gust
KPH
rain 1hr
cm
rain 24hr
cm
rain mn
cm
humidity
%
barometer
mb
20260903035351 13 270 0.0 3.2 0.00 0.00 0.00 64 1023.3
20260903034451 13 0 0.0 0.0 0.00 0.00 0.00 64 1023.2
20260903033551 13 0 0.0 0.0 0.00 0.00 0.00 63 1023.3
20260903032651 13 0 0.0 0.0 0.00 0.00 0.00 63 1023.2
20260903031751 13 0 0.0 0.0 0.00 0.00 0.00 63 1023.4
20260903025951 13 0 0.0 0.0 0.00 0.00 0.00 62 1023.4
20260903025051 13 0 0.0 0.0 0.00 0.00 0.00 62 1023.4
20260903024151 13 0 0.0 0.0 0.00 0.00 0.00 62 1023.4
20260903022351 13 0 0.0 0.0 0.00 0.00 0.00 62 1023.4
20260903021451 13 0 0.0 0.0 0.00 0.00 0.00 62 1023.4
20260903020551 13 0 0.0 0.0 0.00 0.00 0.00 62 1023.5
20260903015651 13 0 0.0 0.0 0.00 0.00 0.00 61 1023.3
20260903014751 13 0 0.0 0.0 0.00 0.00 0.00 61 1023.4
20260903013851 13 0 0.0 0.0 0.00 0.00 0.00 61 1023.3
20260903012951 13 0 0.0 0.0 0.00 0.00 0.00 61 1023.3
20260903012051 13 0 0.0 0.0 0.00 0.00 0.00 61 1023.4
20260903011151 13 0 0.0 0.0 0.00 0.00 0.00 61 1023.4
20260903005351 13 0 0.0 0.0 0.00 0.00 0.00 60 1023.4
20260903004451 13 0 0.0 0.0 0.00 0.00 0.00 59 1023.4
20260903003551 13 0 0.0 0.0 0.00 0.00 0.00 59 1023.3
20260903002651 13 270 0.0 1.6 0.00 0.00 0.00 59 1023.3
20260903001751 13 270 0.0 1.6 0.00 0.00 0.00 58 1023.3
20260903000851 13 0 0.0 0.0 0.00 0.00 0.00 57 1023.4
20260902235051 13 0 0.0 0.0 0.00 0.00 0.00 57 1023.4
20260902234151 13 0 0.0 0.0 0.00 0.00 0.00 56 1023.4
20260902233251 13 0 0.0 0.0 0.00 0.00 0.00 56 1023.4
20260902232351 13 0 0.0 0.0 0.00 0.00 0.00 56 1023.3
20260902231451 13 0 0.0 0.0 0.00 0.00 0.00 56 1023.3
20260902225651 12 0 0.0 0.0 0.00 0.00 0.00 54 1023.3
20260902224751 12 0 0.0 0.0 0.00 0.00 0.00 53 1023.4
20260902223851 12 0 0.0 0.0 0.00 0.00 0.00 52 1023.4
20260902222951 12 0 0.0 0.0 0.00 0.00 0.00 51 1023.6
20260902222051 13 270 0.0 1.6 0.00 0.00 0.00 51 1023.5
20260902220251 13 270 0.0 1.6 0.00 0.00 0.00 48 1023.5
20260902214451 13 0 0.0 0.0 0.00 0.00 0.00 46 1023.4
20260902213551 13 270 0.0 3.2 0.00 0.00 0.00 45 1023.4
20260902212651 13 270 0.0 3.2 0.00 0.00 0.00 43 1023.5
20260902211751 13 270 0.0 3.2 0.00 0.00 0.00 42 1023.3
20260902205051 15 0 0.0 0.0 0.00 0.00 0.00 38 1023.1
20260902203251 15 270 0.0 1.6 0.00 0.05 0.00 37 1023.4
20260902202351 16 0 0.0 0.0 0.00 0.05 0.00 37 1023.1
20260902201453 16 324 0.0 3.2 0.00 0.05 0.00 38 1023.2
20260902200551 16 326 0.0 8.0 0.00 0.05 0.00 40 1023.3
20260902195651 15 317 0.0 12.9 0.00 0.05 0.00 41 1023.4
20260902194751 15 344 6.4 12.9 0.00 0.05 0.00 40 1023.4
20260902193851 15 90 0.0 3.2 0.00 0.05 0.00 35 1023.1
20260902192951 15 90 0.0 3.2 0.00 0.05 0.00 34 1023.0
20260902191150 15 0 0.0 0.0 0.00 0.05 0.00 33 1023.0
20260902190251 15 90 0.0 1.6 0.00 0.05 0.00 32 1023.0
20260902184451 15 90 0.0 3.2 0.00 0.05 0.00 30 1023.1
20260902183550 15 90 0.0 1.6 0.00 0.05 0.00 28 1022.9
20260902182651 16 90 0.0 1.6 0.00 0.05 0.00 27 1022.8
20260902181751 16 90 0.0 1.6 0.00 0.05 0.00 25 1022.6
20260902180851 17 0 0.0 0.0 0.00 0.05 0.00 21 1022.6
20260902175951 17 0 0.0 0.0 0.00 0.05 0.00 21 1022.5
20260902175057 18 90 0.0 1.6 0.00 0.05 0.00 19 1022.4
20260902174150 18 30 0.0 1.6 0.00 0.05 0.00 16 1022.4
20260902173251 19 1 0.0 1.6 0.00 0.05 0.00 15 1022.5
20260902172350 19 1 0.0 1.6 0.00 0.05 0.00 13 1022.3
20260902170550 20 1 0.0 1.6 0.00 0.05 0.00 11 1022.5
20260902165650 20 1 0.0 1.6 0.00 0.05 0.00 11 1022.4
20260902164751 20 1 0.0 4.8 0.00 0.05 0.00 10 1022.2
20260902162950 21 1 0.0 3.2 0.00 0.05 0.00 10 1022.5
20260902162050 21 1 0.0 4.8 0.00 0.05 0.00 10 1022.5
20260902161151 21 1 0.0 3.2 0.00 0.05 0.00 10 1022.5
20260902160250 22 1 0.0 3.2 0.00 0.05 0.00 10 1022.3
20260902155350 22 357 0.0 3.2 0.00 0.05 0.00 10 1022.3
20260902154450 23 357 0.0 4.8 0.00 0.05 0.00 10 1022.4
20260902153551 23 309 0.0 8.0 0.00 0.05 0.00 10 1022.4
20260902152650 24 328 0.0 3.2 0.00 0.05 0.00 10 1022.6
20260902151750 24 306 0.0 4.8 0.00 0.05 0.00 10 1022.6
20260902150850 25 286 1.6 6.4 0.00 0.05 0.00 10 1022.7
20260902145950 25 314 1.6 11.3 0.00 0.05 0.00 10 1022.8
20260902145051 23 317 1.6 9.7 0.00 0.05 0.00 10 1022.7
20260902144150 24 312 4.8 14.5 0.00 0.05 0.00 10 1022.7
20260902143250 25 292 3.2 11.3 0.00 0.05 0.00 10 1022.8
20260902142350 25 329 1.6 8.0 0.00 0.05 0.00 10 1022.9
20260902140550 24 297 1.6 11.3 0.00 0.05 0.00 10 1023.2
20260902135650 25 286 3.2 9.7 0.00 0.05 0.00 10 1023.1
20260902134750 26 344 0.0 6.4 0.00 0.05 0.00 10 1023.1
20260902133850 25 300 1.6 9.7 0.00 0.05 0.00 10 1023.1
20260902132950 25 275 0.0 6.4 0.00 0.05 0.00 10 1023.1
20260902132050 24 310 0.0 4.8 0.00 0.05 0.00 10 1023.2
20260902131150 24 316 0.0 11.3 0.00 0.05 0.00 10 1023.5
20260902130250 24 321 3.2 11.3 0.00 0.05 0.00 10 1023.5
20260902125351 24 306 0.0 8.0 0.00 0.05 0.00 10 1023.5
20260902123550 24 307 3.2 8.0 0.00 0.05 0.00 10 1023.5
20260902122650 25 210 1.6 6.4 0.00 0.05 0.00 10 1023.4
20260902121750 26 286 0.0 6.4 0.00 0.05 0.00 10 1023.5
20260902120850 26 326 1.6 6.4 0.00 0.05 0.00 10 1023.5
20260902115051 24 305 3.2 12.9 0.00 0.05 0.00 10 1023.6
20260902114150 24 313 3.2 9.7 0.00 0.05 0.00 10 1023.8
20260902113250 24 316 3.2 14.5 0.00 0.05 0.00 10 1023.8
20260902112350 24 309 3.2 9.7 0.00 0.05 0.00 10 1023.8
20260902111450 24 296 3.2 11.3 0.00 0.05 0.00 10 1023.9
20260902110550 23 313 1.6 11.3 0.00 0.05 0.00 10 1024.1
20260902105650 25 332 1.6 12.9 0.00 0.05 0.00 10 1024.0
20260902104750 24 319 0.0 8.0 0.00 0.05 0.00 10 1024.3
20260902103850 24 312 3.2 17.7 0.00 0.05 0.00 10 1024.1
20260902102950 23 346 8.0 17.7 0.00 0.05 0.00 10 1024.2
20260902102050 22 353 3.2 12.9 0.00 0.05 0.00 10 1024.4
20260902101150 23 1 4.8 9.7 0.00 0.05 0.00 10 1024.2
20260902095351 22 345 1.6 8.0 0.00 0.05 0.00 10 1024.4
20260902094450 21 1 3.2 6.4 0.00 0.05 0.00 11 1024.3
20260902093550 21 355 3.2 11.3 0.00 0.05 0.00 11 1024.5
20260902092650 22 327 1.6 6.4 0.00 0.05 0.00 10 1024.5
20260902091750 22 316 0.0 9.7 0.00 0.05 0.00 12 1024.7
20260902090850 21 314 1.6 3.2 0.00 0.05 0.00 15 1024.5
20260902085950 20 318 0.0 6.4 0.00 0.05 0.00 15 1024.4
20260902085050 21 321 0.0 3.2 0.00 0.05 0.00 13 1024.4
20260902083250 21 321 1.6 9.7 0.00 0.05 0.00 12 1024.2
20260902082350 22 315 0.0 3.2 0.00 0.05 0.00 12 1024.4
20260902081450 24 347 0.0 3.2 0.00 0.05 0.00 10 1024.4
20260902080550 25 1 0.0 4.8 0.00 0.05 0.00 10 1024.4
20260902075650 25 1 1.6 6.4 0.00 0.05 0.00 11 1024.3
20260902074750 24 134 1.6 6.4 0.00 0.05 0.00 12 1024.3
20260902073850 23 297 0.0 8.0 0.00 0.05 0.00 13 1024.3
20260902072950 23 350 1.6 8.0 0.00 0.05 0.00 13 1024.3
20260902072050 22 299 3.2 6.4 0.00 0.05 0.00 15 1024.4
20260902065350 22 270 1.6 4.8 0.00 0.05 0.00 24 1024.5
20260902064450 23 270 1.6 3.2 0.00 0.05 0.00 28 1024.4
20260902063550 22 270 0.0 3.2 0.00 0.05 0.00 35 1024.4
20260902062650 21 347 0.0 3.2 0.00 0.05 0.00 40 1024.4
20260902061750 21 1 0.0 1.6 0.00 0.05 0.00 55 1024.2
20260902060850 20 1 0.0 1.6 0.00 0.05 0.00 74 1024.5
20260902055950 17 1 0.0 3.2 0.00 0.05 0.00 75 1024.5
20260902055051 16 357 1.6 3.2 0.00 0.05 0.00 79 1024.2
20260902054150 15 316 0.0 3.2 0.00 0.05 0.00 98 1024.1
20260902053250 14 0 0.0 0.0 0.00 0.05 0.00 99 1024.1
20260902052350 12 0 0.0 0.0 0.00 0.05 0.00 91 1024.0
20260902051450 10 181 0.0 1.6 0.00 0.05 0.00 87 1024.1
20260902050550 10 314 0.0 1.6 0.00 0.05 0.00 86 1024.0
20260902045650 9 314 0.0 1.6 0.00 0.05 0.00 85 1024.1
20260902044750 9 0 0.0 0.0 0.00 0.05 0.00 85 1023.9
20260902043852 9 0 0.0 0.0 0.00 0.05 0.00 84 1023.9
20260902042950 9 314 0.0 1.6 0.00 0.05 0.00 83 1024.0
20260902041150 10 0 0.0 0.0 0.00 0.05 0.00 82 1023.8
20260902040250 10 0 0.0 0.0 0.00 0.05 0.00 82 1023.8